Location: Greolier
(44.4655°N, 6.2293°E)
Time: 14:37:35
(UTC+00:00)

Daily predictions for brighter satellites

Satellite Brightness Start Highest point End
(mag) Time Altitude Azimuth Time Altitude Azimuth Time Altitude Azimuth
SL-24 R/B 4.4 19:15:07 10° NNE 19:19:13 47° E 19:23:36 10° S
Cosmos 2151 Rocket 3.7 19:19:35 10° S 19:23:48 52° E 19:28:03 10° NNE
BREEZE-M DEB (TANK) 2.3 19:22:23 10° WNW 19:24:38 65° SSW 19:28:39 10° SE
Okean 2 Rocket 3.6 19:21:45 10° SSE 19:25:57 41° E 19:30:10 10° NNE
Cosmos 44 Rocket 4.0 19:24:02 10° S 19:28:32 34° ESE 19:33:09 10° NE
Cosmos 1743 4.4 19:28:19 10° NE 19:29:26 12° ENE 19:30:33 10° E
Cosmos 2056 Rocket 3.8 19:25:20 10° SSW 19:30:44 78° WNW 19:36:08 10° NNE
Cosmos 1536 Rocket 3.7 19:26:32 10° N 19:30:50 56° ENE 19:35:08 10° SSE
Cosmos 1110 Rocket 4.4 19:25:56 10° S 19:30:54 44° ESE 19:35:56 10° NNE
USA 186 3.7 19:31:11 10° E 19:32:03 11° ENE 19:32:56 10° NE
Cosmos 1624 Rocket 4.2 19:28:15 10° SSW 19:33:24 76° WNW 19:38:36 10° NNE
MOS 1 4.4 19:28:32 10° SSE 19:34:08 67° ENE 19:39:48 10° N
Meteor 2-1 Rocket 4.4 19:29:41 10° S 19:35:13 54° E 19:40:40 10° NNE
USA 306 3.8 19:33:17 10° S 19:35:21 15° SE 19:37:05 10° E
SOZ 4.4 19:31:22 10° WNW 19:35:41 70° SW 19:37:45 12° SE
Cosmos 1980 Rocket 3.2 19:31:14 10° N 19:36:22 33° NE 19:41:19 11° ESE
GEOS 3 Rocket 4.4 19:34:50 10° SSE 19:39:57 50° WSW 19:45:10 10° NW
USA 229 DEB 4.1 19:34:39 10° NW 19:42:16 87° NE 19:50:30 10° SE
Okean O Rocket 2.6 19:38:44 11° SE 19:42:17 30° ENE 19:46:03 10° N
USA 229 4.1 19:34:42 10° NW 19:42:20 86° NE 19:50:32 11° SE
CZ-4 R/B 1.4 19:39:08 10° S 19:42:44 67° WSW 19:46:22 10° NNW
ISS -3.3 19:40:52 10° SSW 19:44:00 38° SE 19:47:09 10° ENE
CZ-4B R/B 4.5 19:41:21 10° S 19:45:17 58° W 19:49:16 10° NNW
Cosmos 1725 Rocket 4.5 19:41:28 10° SSE 19:47:16 41° E 19:53:04 10° NNE
CZ-4C R/B 1.6 19:45:09 10° SSW 19:49:02 54° ESE 19:53:54 10° NE
Meteor 2-3 Rocket 3.7 19:44:11 10° N 19:49:49 74° ENE 19:55:28 10° SSE
CZ-4B DEB 4.4 19:46:20 10° S 19:51:50 78° WSW 19:57:24 10° NNW
Cosmos 1833 Rocket 3.2 19:46:38 10° SW 19:52:12 66° WNW 19:57:48 10° NNE
Cosmos 292 Rocket 3.7 19:48:12 10° NNW 19:53:00 75° ENE 19:57:17 13° SSE
ATLAS 2AS CENTAUR R/B 3.6 19:47:00 10° WSW 19:53:48 53° NW 20:00:28 10° NNE
CZ-4B R/B 3.3 19:48:39 10° SSE 19:54:18 80° ENE 19:59:58 10° NNW
Okean-O 3.2 19:52:59 14° SE 19:56:22 40° ENE 20:00:29 10° N
Cosmos 1892 Rocket 4.2 19:55:00 10° N 19:59:03 38° ENE 20:01:55 17° SE
Cosmos 1455 Rocket 3.5 19:56:27 10° SSE 20:00:36 42° E 20:04:46 10° NNE
USA 305 4.4 19:58:30 10° NW 20:01:57 25° NNE 20:05:08 10° ENE
Spot 2 Rocket 3.7 19:57:49 14° SE 20:02:01 55° ENE 20:06:55 10° N
MetOp-B 4.2 19:56:55 10° SSE 20:02:16 85° WSW 20:07:40 10° NNW
Gbstr 26 Del rocket 3.7 19:57:49 10° WNW 20:02:58 54° NNE 20:06:35 14° E
SL-4 R/B 2.1 20:00:01 10° WNW 20:03:46 57° SW 20:06:19 19° SE
Cosmos 2016 Rocket 4.2 19:59:31 10° SSE 20:05:34 52° E 20:11:35 10° NNE
Cosmos 2173 Rocket 4.0 20:01:22 10° S 20:07:30 90° NE 20:13:44 10° N
Okean 1 Rocket 3.2 20:03:18 10° S 20:07:39 80° W 20:12:06 10° N
ADEOS 3.6 20:02:51 10° SSE 20:08:04 85° WSW 20:13:19 10° NNW
Cosmos 1816 Rocket 4.4 20:06:33 10° N 20:12:42 80° E 20:18:25 12° SSE
Helios 1A Rocket 3.9 20:13:20 10° N 20:16:16 36° WNW 20:19:10 10° SW
Cosmos 2061 Rocket 4.5 20:13:20 16° SSE 20:17:46 41° E 20:23:34 10° NNE
Meteor 1-27 4.2 20:15:42 10° S 20:21:19 67° E 20:26:53 10° NNE
ERS-1 Rocket 3.9 20:18:12 10° S 20:23:00 46° W 20:27:50 10° NNW
ATLAS 3B R/B 3.1 20:21:55 10° NW 20:29:37 70° WSW 20:34:57 20° SSE
Cosmos 2369 4.3 20:24:26 10° NNW 20:29:54 44° ENE 20:33:06 23° ESE
BREEZE-M DEB 4.4 20:25:40 10° SSW 20:30:02 32° SE 20:35:05 10° ENE
Cosmos 2322 Rocket 4.4 20:27:09 10° N 20:30:04 14° NE 20:32:59 10° ENE
Cosmos 2082 Rocket 2.3 20:24:54 10° S 20:30:25 53° ESE 20:35:58 10° NE
Cosmos 1452 Rocket 3.5 20:25:14 10° SSW 20:30:27 86° WNW 20:35:43 10° NNE
DELTA 2 R/B (1) 4.1 20:25:58 10° SW 20:31:01 36° SSE 20:33:42 23° ESE
DEBRIS 3.5 20:28:22 10° W 20:31:07 61° NNW 20:38:26 10° ENE
Cosmos 1741 Rocket 4.1 20:27:53 10° NNW 20:33:13 78° WSW 20:36:43 22° SSE
SL-08 R/B 3.8 20:29:36 10° N 20:34:24 62° WNW 20:39:05 10° SSW
Cosmos 1802 Rocket 4.1 20:30:57 10° SSW 20:37:09 78° W 20:43:20 10° N
CZ-4B R/B 3.8 20:36:56 28° SE 20:39:02 47° ENE 20:43:36 10° N
YAOGAN 11 4.2 20:36:25 10° N 20:40:50 77° WNW 20:45:16 10° SSW
Cosmos 1302 Rocket 3.9 20:41:33 10° SSW 20:46:42 81° ESE 20:51:54 10° NNE
CZ-2C R/B 3.3 20:49:47 27° NE 20:49:47 27° NE 20:51:50 10° N
Terra 3.6 20:47:27 10° SSW 20:51:23 26° W 20:55:22 10° NW
Cosmos 1697 Rocket 4.1 20:46:48 10° NW 20:51:40 31° WSW 20:56:06 12° SSW
NOSS 3-3 (A) 3.6 20:48:02 10° SSW 20:52:58 60° ESE 20:58:47 10° NE
Cosmos 2151 3.8 20:49:26 10° N 20:53:10 32° ENE 20:53:43 30° E
Meteor 2-12 Rocket 4.4 20:47:47 10° N 20:53:53 87° W 20:57:39 25° S
Milstar 3 4.3 20:48:48 10° SW 20:54:30 24° S 20:56:26 22° SSE
COSMOS 2406 3.6 20:54:42 32° SSE 20:56:32 41° ESE 21:01:53 10° NE
SL-16 R/B 3.3 20:52:59 10° N 20:58:04 33° NE 21:00:34 23° E
Cosmos 2228 3.2 20:58:22 23° SSW 21:00:50 66° W 21:04:56 10° N
USA 186 3.1 21:00:42 24° WSW 21:01:08 25° W 21:03:27 10° NW
USA 306 3.5 20:59:15 10° WSW 21:00:59 26° WSW 21:00:59 26° WSW
Cosmos 1743 3.7 20:59:42 10° NNW 21:02:24 29° W 21:03:16 25° SW
Cosmos 1782 3.5 21:00:49 20° SW 21:02:53 43° WNW 21:06:16 10° N
SPOT 3 Rocket 3.5 21:02:10 33° S 21:04:32 84° WSW 21:09:42 10° NNW
Cosmos 2333 Rocket 3.1 21:08:14 10° NNW 21:13:31 37° NE 21:15:41 28° E
Cosmos 1626 Rocket 3.4 21:09:27 10° N 21:13:49 78° E 21:14:41 56° SSE
CZ-4B R/B 2.7 21:13:31 53° SW 21:13:49 56° WSW 21:17:10 10° NNW
Cosmos 1891 Rocket 4.5 21:11:38 36° SSE 21:14:08 62° E 21:20:07 10° NNE
Cosmos 1607 4.2 21:08:18 10° SW 21:14:25 69° NW 21:20:40 10° NNE
Fengyun 1C 4.5 21:16:18 43° SSE 21:18:05 86° ENE 21:23:22 10° NNW
Okean O Rocket 3.3 21:15:58 16° SW 21:18:27 26° W 21:22:05 10° NW
Cosmos 2233 Rocket 4.5 21:14:27 12° SSW 21:20:04 58° WNW 21:26:11 10° N
Cosmos 1980 Rocket 3.1 21:15:07 10° NW 21:20:26 41° WSW 21:23:05 26° SSW
ISS -2.4 21:17:38 10° W 21:20:48 39° NNW 21:23:59 10° NE
Helios 1B rocket 4.3 21:21:08 15° ENE 21:21:08 15° ENE 21:22:53 10° NNE
NOSS 3-3 (C) 3.5 21:17:31 17° SSW 21:21:29 80° SE 21:27:33 10° NE
Meteor 1-25 Rocket 4.4 21:17:16 10° N 21:22:53 56° ENE 21:24:22 43° SE
Cosmos 1933 3.2 21:27:23 68° ENE 21:27:23 68° ENE 21:30:56 10° NNE
IRS-1C Rocket 4.2 21:25:22 39° S 21:27:17 68° WSW 21:32:34 10° NNW
USA 305 2.6 21:23:47 10° NW 21:27:31 70° NNW 21:27:31 70° NNW
Okean 1-7 Rocket 4.4 21:25:15 10° N 21:29:22 36° ENE 21:29:28 35° E
Geosat 3.9 21:26:41 10° NNE 21:31:41 70° ESE 21:32:49 52° S
Ariane Rocket 3.3 21:33:20 39° SSW 21:34:57 57° W 21:39:56 10° NNW
Cosmos 2098 Rocket 3.5 21:34:55 54° ESE 21:35:21 56° E 21:39:57 10° NNE
CZ-4C R/B 4.1 21:33:56 10° W 21:37:39 25° NNW 21:42:11 10° NNE
Nadezhda 4 Rocket 4.2 21:34:32 10° N 21:40:33 55° ENE 21:42:00 45° ESE
Cosmos 2360 Rocket 3.0 21:41:32 10° NNW 21:46:52 39° NE 21:48:24 33° E
Cosmos 2084 Rocket 3.7 21:43:07 10° NW 21:47:04 57° WSW 21:47:04 57° WSW
Cosmos 1437 Rocket 3.2 21:48:46 53° NW 21:48:46 53° NW 21:51:52 10° N
Cosmos 1461 4.4 21:50:45 22° NE 21:50:45 22° NE 21:52:13 10° NE
Gbstr 26 Del rocket 4.0 21:44:53 10° WNW 21:48:34 35° WSW 21:48:34 35° WSW
Cosmos 1544 Rocket 4.3 21:49:36 37° WSW 21:50:43 46° WNW 21:54:56 10° N
USA 234 3.3 21:50:42 10° ENE 21:57:03 51° SE 21:57:36 49° SSE
Cosmos 1763 Rocket 4.3 22:03:46 37° E 22:03:46 37° E 22:07:57 10° NE
Cosmos 2219 Rocket 3.3 21:58:33 10° N 22:03:41 34° NE 22:05:14 29° E
Cosmos 2026 Rocket 4.4 21:58:40 10° N 22:04:51 50° ENE 22:06:05 44° ESE
Cosmos 1805 4.5 22:03:17 10° NNW 22:05:16 34° NNW 22:05:16 34° NNW
Cosmos 1777 Rocket 4.0 22:05:35 10° NNW 22:10:49 68° ENE 22:11:10 65° E
Cosmos 1503 Rocket 4.3 22:06:51 10° NNW 22:11:57 53° ENE 22:12:20 52° E
Cosmos 2082 Rocket 4.1 22:09:57 10° WSW 22:14:47 28° NW 22:19:38 10° N
Cosmos 2322 Rocket 2.2 22:09:32 10° NNW 22:15:12 68° ENE 22:15:56 61° ESE
Cosmos 1464 Rocket 4.1 22:18:24 48° SW 22:20:06 69° W 22:26:16 10° N
Cosmos 1486 Rocket 3.9 22:18:37 10° NNW 22:23:53 83° WSW 22:24:02 81° SW
Cosmos 1825 Rocket 3.8 22:19:53 10° NNW 22:23:40 63° NW 22:23:40 63° NW
Cosmos 1953 Rocket 4.0 22:22:18 10° N 22:25:57 56° NNE 22:25:57 56° NNE
ALOS 2 3.6 22:27:20 37° NE 22:27:20 37° NE 22:31:00 10° N
ARIANE 5 R/B 3.4 22:27:36 45° NE 22:27:36 45° NE 22:31:24 10° N
Cosmos 2058 Rocket 4.1 22:28:26 37° NE 22:28:26 37° NE 22:31:29 10° NNE
Meteor 1-5 Rocket 4.4 22:21:48 10° NNW 22:27:25 62° W 22:28:14 56° SW
Spot 4 4.3 22:28:39 49° ENE 22:28:39 49° ENE 22:33:07 10° N
Cosmos 2278 3.8 22:29:47 10° NNW 22:35:26 62° WSW 22:35:41 61° SW
SL-16 R/B 2.8 22:36:56 10° NW 22:42:15 42° WSW 22:42:24 42° WSW
Helios 1A 4.2 22:41:06 10° N 22:44:23 33° WNW 22:44:23 33° WNW
Cosmos 1092 Rocket 3.8 22:38:47 10° N 22:44:58 83° E 22:45:38 72° SSE
Cosmos-2242 3.8 22:51:19 47° N 22:51:19 47° N 22:54:21 10° N
CZ-2C R/B 4.0 22:46:24 10° NNE 22:50:07 62° N 22:50:07 62° N
ACS3 Solar Sail 3.8 22:49:56 10° ENE 22:52:23 12° E 22:53:00 12° E
Aureole 1 Rocket 4.2 22:47:24 10° NNW 22:52:49 55° ENE 22:53:46 51° E
Helios 1B rocket 4.2 22:55:06 23° NW 22:55:06 23° NW 22:56:47 10° NNW
Cosmos 2034 Rocket 4.4 22:53:27 47° SW 22:54:55 57° WNW 23:01:11 10° N
Meteor 2-6 Rocket 4.4 22:56:54 63° ESE 22:57:01 63° E 23:02:55 10° NNE
CZ-2C R/B 3.8 22:56:34 31° E 22:57:17 32° ENE 23:01:53 10° N
Cosmos 2333 Rocket 3.1 22:52:36 10° NW 22:57:41 36° WSW 22:57:41 36° WSW
ISS -1.2 22:55:27 10° NW 22:57:24 21° NNW 22:57:24 21° NNW
Cosmos 1833 4.2 23:04:37 69° W 23:05:04 73° WNW 23:10:43 10° NNE
Meteor 2-2 Rocket 4.2 23:09:39 68° W 23:09:57 69° WNW 23:15:41 10° N
Cosmos 468 Rocket 4.1 23:11:08 69° NE 23:11:08 69° NE 23:15:53 10° NNE
Cosmos 2221 3.8 23:14:13 34° NE 23:14:13 34° NE 23:16:51 10° NNE
Cosmos 2297 Rocket 3.8 23:18:41 21° E 23:18:41 21° E 23:22:05 10° NE
Cosmos 540 Rocket 3.9 23:18:15 51° WNW 23:18:28 52° WNW 23:23:30 10° NNE
Cosmos 2322 4.3 23:15:10 10° NNW 23:20:42 49° ENE 23:21:36 45° E
Cosmos 1634 Rocket 4.1 23:22:44 56° WSW 23:23:31 60° WNW 23:29:38 10° N
Cosmos 2279 Rocket 3.8 23:25:15 74° SW 23:25:49 83° W 23:32:07 10° N
NOSS 3-4 (A) 4.1 23:22:22 10° NW 23:29:06 52° WSW 23:29:36 51° SW
NOSS 3-4 (C) 4.1 23:22:59 10° NW 23:29:44 52° WSW 23:30:16 51° SW
Cosmos 1898 Rocket 3.8 23:25:29 10° NNW 23:30:35 59° ENE 23:30:35 59° ENE
Cosmos 2360 Rocket 3.2 23:25:42 10° NW 23:30:08 33° W 23:30:08 33° W
RESURS DK-1 3.9 23:29:14 10° N 23:32:11 31° NE 23:32:11 31° NE
USA 234 3.7 23:33:43 10° NE 23:40:06 58° NNW 23:44:54 19° WSW
Meteor 1-11 Rocket 3.7 23:37:57 10° N 23:43:39 68° ENE 23:43:52 68° E
Meteor 1-10 Rocket 4.2 23:46:38 77° ESE 23:46:48 78° E 23:52:45 10° NNE
Cosmos 2219 Rocket 3.0 23:42:25 10° NW 23:46:54 38° W 23:46:54 38° W
Cosmos 1812 Rocket 4.3 23:48:46 52° N 23:48:46 52° N 23:52:08 10° N
